(°C)
15°
15°
15°
15°
14°
13°
12°
(°C)
11°
11°
11°
10°
D
D
D
D
D
D
DKD
(km/saat)
10-18
10-17
10-18
10-18
10-17
11-17
10-17
(mm)
0
0
0
0
0
0
0
(%)
0
0
0
0
0
0
0

Güneşin açısı

/ 44.7°
sun-icon
UV 3
04:07
20:46
Azalan ay (253°)
01:56
09:00

55.6°K 37.27°D (UUWW) için METAR

Zaman Koşullar Sıcaklık/
Çiy noktası
Rüzgar Görünürlük Hava Bulutlar Basınç Değiştir Ham
VFR 15°C / -2°C variable 4kt Gust 14kt >10km - Clouds and Visibility OK 1008 No Significant change UUWW 211130Z VRB02G07MPS CAVOK 15/M02 Q1008 R06/000070 NOSIG
VFR 14°C / -2°C 200º variable 150º to 240º 6kt >10km - Clouds and Visibility OK 1009 No Significant change UUWW 211100Z 20003MPS 150V240 CAVOK 14/M02 Q1009 R06/000070 NOSIG
VFR 14°C / -3°C 170º variable 100º to 230º 6kt >10km - Clouds and Visibility OK 1009 No Significant change UUWW 211030Z 17003MPS 100V230 CAVOK 14/M03 Q1009 R06/000070 NOSIG
VFR 14°C / -1°C 130º 4kt. Wind Shear present on Runway 06. >10km - Clouds and Visibility OK 1009 No Significant change UUWW 211000Z 13002MPS CAVOK 14/M01 Q1009 WS R06 R06/000070 NOSIG
VFR 14°C / -2°C variable 4kt. Wind Shear present on Runway 06. >10km - Clouds and Visibility OK 1009 No Significant change UUWW 210930Z VRB02MPS CAVOK 14/M02 Q1009 WS R06 R06/000070 NOSIG
VFR 13°C / -2°C 140º 6kt >10km - Clouds and Visibility OK 1010 No Significant change UUWW 210900Z 14003MPS CAVOK 13/M02 Q1010 R06/000070 NOSIG
VFR 13°C / -3°C 120º variable 350º to 160º 6kt >10km - Clouds and Visibility OK 1010 No Significant change UUWW 210830Z 12003MPS 350V160 CAVOK 13/M03 Q1010 R06/000070 NOSIG
VFR 13°C / -1°C 110º 6kt >10km - Clouds and Visibility OK 1010 No Significant change UUWW 210800Z 11003MPS CAVOK 13/M01 Q1010 R06/000070 NOSIG
VFR 12°C / -4°C 120º variable 070º to 170º 6kt >10km - Clouds and Visibility OK 1011 No Significant change UUWW 210730Z 12003MPS 070V170 CAVOK 12/M04 Q1011 R06/000070 NOSIG
VFR 12°C / -2°C variable 6kt >10km - Clouds and Visibility OK 1011 No Significant change UUWW 210700Z VRB03MPS CAVOK 12/M02 Q1011 R06/000070 NOSIG
VFR 12°C / -1°C 140º 6kt >10km - Clouds and Visibility OK 1011 No Significant change UUWW 210630Z 14003MPS CAVOK 12/M01 Q1011 R19/000070 NOSIG
VFR 11°C / -2°C 150º variable 080º to 180º 4kt >10km - Clouds and Visibility OK 1012 No Significant change UUWW 210600Z 15002MPS 080V180 CAVOK 11/M02 Q1012 R19/000070 NOSIG
VFR 10°C / -1°C 170º variable 130º to 200º 4kt >10km - Clouds and Visibility OK 1012 No Significant change UUWW 210530Z 17002MPS 130V200 CAVOK 10/M01 Q1012 R19/000070 NOSIG
VFR 9°C / -1°C 130º 4kt >10km - Clouds and Visibility OK 1012 No Significant change UUWW 210500Z 13002MPS CAVOK 09/M01 Q1012 R19/000070 NOSIG
VFR 8°C / -2°C 130º 6kt >10km - Clouds and Visibility OK 1013 No Significant change UUWW 210430Z 13003MPS CAVOK 08/M02 Q1013 R19/000070 NOSIG
VFR 7°C / -2°C 120º 6kt >10km - Clouds and Visibility OK 1013 No Significant change UUWW 210400Z 12003MPS CAVOK 07/M02 Q1013 R06/000070 NOSIG
VFR 6°C / -2°C 130º 4kt >10km - Clouds and Visibility OK 1013 No Significant change UUWW 210330Z 13002MPS CAVOK 06/M02 Q1013 R06/000070 NOSIG
VFR 5°C / -2°C 130º 4kt >10km - Clouds and Visibility OK 1013 No Significant change UUWW 210300Z 13002MPS CAVOK 05/M02 Q1013 R06/000070 NOSIG
VFR 5°C / -2°C 120º 4kt >10km - Clouds and Visibility OK 1013 No Significant change UUWW 210230Z 12002MPS CAVOK 05/M02 Q1013 R06/000070 NOSIG
VFR 5°C / -3°C 130º 2kt >10km - Clouds and Visibility OK 1013 No Significant change UUWW 210200Z 13001MPS CAVOK 05/M03 Q1013 R06/000070 NOSIG
VFR 4°C / -3°C 120º 2kt >10km - Clouds and Visibility OK 1013 No Significant change UUWW 210130Z 12001MPS CAVOK 04/M03 Q1013 R06/000070 NOSIG
VFR 5°C / -3°C 130º 4kt >10km - Clouds and Visibility OK 1013 No Significant change UUWW 210100Z 13002MPS CAVOK 05/M03 Q1013 R06/000070 NOSIG
VFR 5°C / -3°C 130º 2kt >10km - Clouds and Visibility OK 1014 No Significant change UUWW 210030Z 13001MPS CAVOK 05/M03 Q1014 R06/000070 NOSIG
VFR 5°C / -3°C 130º 2kt >10km - Clouds and Visibility OK 1014 No Significant change UUWW 210000Z 13001MPS CAVOK 05/M03 Q1014 R06/000070 NOSIG

VFR

15°C / -2°C

[Daha fazla]
Rüzgar variable 4kt Gust 14kt
Görünürlük >10km
Hava -
Bulutlar Clouds and Visibility OK
Basınç 1008
Değiştir No Significant change
Ham UUWW 211130Z VRB02G07MPS CAVOK 15/M02 Q1008 R06/000070 NOSIG

VFR

14°C / -2°C

[Daha fazla]
Rüzgar 200º variable 150º to 240º 6kt
Görünürlük >10km
Hava -
Bulutlar Clouds and Visibility OK
Basınç 1009
Değiştir No Significant change
Ham UUWW 211100Z 20003MPS 150V240 CAVOK 14/M02 Q1009 R06/000070 NOSIG

VFR

14°C / -3°C

[Daha fazla]
Rüzgar 170º variable 100º to 230º 6kt
Görünürlük >10km
Hava -
Bulutlar Clouds and Visibility OK
Basınç 1009
Değiştir No Significant change
Ham UUWW 211030Z 17003MPS 100V230 CAVOK 14/M03 Q1009 R06/000070 NOSIG

VFR

14°C / -1°C

[Daha fazla]
Rüzgar 130º 4kt. Wind Shear present on Runway 06.
Görünürlük >10km
Hava -
Bulutlar Clouds and Visibility OK
Basınç 1009
Değiştir No Significant change
Ham UUWW 211000Z 13002MPS CAVOK 14/M01 Q1009 WS R06 R06/000070 NOSIG

VFR

14°C / -2°C

[Daha fazla]
Rüzgar variable 4kt. Wind Shear present on Runway 06.
Görünürlük >10km
Hava -
Bulutlar Clouds and Visibility OK
Basınç 1009
Değiştir No Significant change
Ham UUWW 210930Z VRB02MPS CAVOK 14/M02 Q1009 WS R06 R06/000070 NOSIG

VFR

13°C / -2°C

[Daha fazla]
Rüzgar 140º 6kt
Görünürlük >10km
Hava -
Bulutlar Clouds and Visibility OK
Basınç 1010
Değiştir No Significant change
Ham UUWW 210900Z 14003MPS CAVOK 13/M02 Q1010 R06/000070 NOSIG

VFR

13°C / -3°C

[Daha fazla]
Rüzgar 120º variable 350º to 160º 6kt
Görünürlük >10km
Hava -
Bulutlar Clouds and Visibility OK
Basınç 1010
Değiştir No Significant change
Ham UUWW 210830Z 12003MPS 350V160 CAVOK 13/M03 Q1010 R06/000070 NOSIG

VFR

13°C / -1°C

[Daha fazla]
Rüzgar 110º 6kt
Görünürlük >10km
Hava -
Bulutlar Clouds and Visibility OK
Basınç 1010
Değiştir No Significant change
Ham UUWW 210800Z 11003MPS CAVOK 13/M01 Q1010 R06/000070 NOSIG

VFR

12°C / -4°C

[Daha fazla]
Rüzgar 120º variable 070º to 170º 6kt
Görünürlük >10km
Hava -
Bulutlar Clouds and Visibility OK
Basınç 1011
Değiştir No Significant change
Ham UUWW 210730Z 12003MPS 070V170 CAVOK 12/M04 Q1011 R06/000070 NOSIG

VFR

12°C / -2°C

[Daha fazla]
Rüzgar variable 6kt
Görünürlük >10km
Hava -
Bulutlar Clouds and Visibility OK
Basınç 1011
Değiştir No Significant change
Ham UUWW 210700Z VRB03MPS CAVOK 12/M02 Q1011 R06/000070 NOSIG

VFR

12°C / -1°C

[Daha fazla]
Rüzgar 140º 6kt
Görünürlük >10km
Hava -
Bulutlar Clouds and Visibility OK
Basınç 1011
Değiştir No Significant change
Ham UUWW 210630Z 14003MPS CAVOK 12/M01 Q1011 R19/000070 NOSIG

VFR

11°C / -2°C

[Daha fazla]
Rüzgar 150º variable 080º to 180º 4kt
Görünürlük >10km
Hava -
Bulutlar Clouds and Visibility OK
Basınç 1012
Değiştir No Significant change
Ham UUWW 210600Z 15002MPS 080V180 CAVOK 11/M02 Q1012 R19/000070 NOSIG

VFR

10°C / -1°C

[Daha fazla]
Rüzgar 170º variable 130º to 200º 4kt
Görünürlük >10km
Hava -
Bulutlar Clouds and Visibility OK
Basınç 1012
Değiştir No Significant change
Ham UUWW 210530Z 17002MPS 130V200 CAVOK 10/M01 Q1012 R19/000070 NOSIG

VFR

9°C / -1°C

[Daha fazla]
Rüzgar 130º 4kt
Görünürlük >10km
Hava -
Bulutlar Clouds and Visibility OK
Basınç 1012
Değiştir No Significant change
Ham UUWW 210500Z 13002MPS CAVOK 09/M01 Q1012 R19/000070 NOSIG

VFR

8°C / -2°C

[Daha fazla]
Rüzgar 130º 6kt
Görünürlük >10km
Hava -
Bulutlar Clouds and Visibility OK
Basınç 1013
Değiştir No Significant change
Ham UUWW 210430Z 13003MPS CAVOK 08/M02 Q1013 R19/000070 NOSIG

VFR

7°C / -2°C

[Daha fazla]
Rüzgar 120º 6kt
Görünürlük >10km
Hava -
Bulutlar Clouds and Visibility OK
Basınç 1013
Değiştir No Significant change
Ham UUWW 210400Z 12003MPS CAVOK 07/M02 Q1013 R06/000070 NOSIG

VFR

6°C / -2°C

[Daha fazla]
Rüzgar 130º 4kt
Görünürlük >10km
Hava -
Bulutlar Clouds and Visibility OK
Basınç 1013
Değiştir No Significant change
Ham UUWW 210330Z 13002MPS CAVOK 06/M02 Q1013 R06/000070 NOSIG

VFR

5°C / -2°C

[Daha fazla]
Rüzgar 130º 4kt
Görünürlük >10km
Hava -
Bulutlar Clouds and Visibility OK
Basınç 1013
Değiştir No Significant change
Ham UUWW 210300Z 13002MPS CAVOK 05/M02 Q1013 R06/000070 NOSIG

VFR

5°C / -2°C

[Daha fazla]
Rüzgar 120º 4kt
Görünürlük >10km
Hava -
Bulutlar Clouds and Visibility OK
Basınç 1013
Değiştir No Significant change
Ham UUWW 210230Z 12002MPS CAVOK 05/M02 Q1013 R06/000070 NOSIG

VFR

5°C / -3°C

[Daha fazla]
Rüzgar 130º 2kt
Görünürlük >10km
Hava -
Bulutlar Clouds and Visibility OK
Basınç 1013
Değiştir No Significant change
Ham UUWW 210200Z 13001MPS CAVOK 05/M03 Q1013 R06/000070 NOSIG

VFR

4°C / -3°C

[Daha fazla]
Rüzgar 120º 2kt
Görünürlük >10km
Hava -
Bulutlar Clouds and Visibility OK
Basınç 1013
Değiştir No Significant change
Ham UUWW 210130Z 12001MPS CAVOK 04/M03 Q1013 R06/000070 NOSIG

VFR

5°C / -3°C

[Daha fazla]
Rüzgar 130º 4kt
Görünürlük >10km
Hava -
Bulutlar Clouds and Visibility OK
Basınç 1013
Değiştir No Significant change
Ham UUWW 210100Z 13002MPS CAVOK 05/M03 Q1013 R06/000070 NOSIG

VFR

5°C / -3°C

[Daha fazla]
Rüzgar 130º 2kt
Görünürlük >10km
Hava -
Bulutlar Clouds and Visibility OK
Basınç 1014
Değiştir No Significant change
Ham UUWW 210030Z 13001MPS CAVOK 05/M03 Q1014 R06/000070 NOSIG

VFR

5°C / -3°C

[Daha fazla]
Rüzgar 130º 2kt
Görünürlük >10km
Hava -
Bulutlar Clouds and Visibility OK
Basınç 1014
Değiştir No Significant change
Ham UUWW 210000Z 13001MPS CAVOK 05/M03 Q1014 R06/000070 NOSIG

55.6°K 37.27°D (UUWW) için TAF

From till


Maximum Temperature 15ºC on . Minimum Temperature 5ºC on .
From till Wind 120º 6kt. Gust 16kt. Visibility 10km or more. Nil Significant Cloud.
Becoming from till Wind 60º 12kt. Visibility 10km or more. Nil Significant Cloud.
Temporarly from till Wind 50º 16kt. Gust 27kt.

Ham: TAF UUWW 211056Z 2112/2212 12003G08MPS CAVOK TX15/2113Z TN05/2201Z BECMG 2117/2119 06006MPS TEMPO 2205/2212 05008G14MPS

55.6°K 37.27°D için radar ve yağış nowcast

Çise
Hafif
Orta
Ağır
Çok ağır
Dolu

Konum işaretleyicisi 55.6°K 37.27°D üzerine yerleştirilir. Bu animasyon son saat içerisindeki yağış radarını ve 1h tahminini gösterir. Hafif yağmur veya kar yağışı radar için görünmez olabilir. Yağış şiddeti açık mavi ile koyu mor arasındaki renklerle kodlanmıştır.

55.6°K 37.27°D için şu anki uydu ve yağmur görüntüleri

Konum işaretleyici 55.6°K 37.27°D üzerine yerleştirilir. [Daha fazla]

Gerçek zamanlı uydu görüntüsü gündüz süresince görülür ışığı gece süresince kızılötesi ışınım ile birleştirir. Gece kızılötesi ışınım sıcaklık farklarını algılayabildiğinden dolayı görüntü karanlık değildir. Ancak düşük bulutları ve sisi yer sıcaklığından ayırmak zordur ve bu nedenle gece boyunca neredeyse görünmez olabilirler. Avrupa için Meteosat uydu görüntüleri gerçek zamanlı olarak her 5 dakikada bir güncellenir. GOES-16/GOES-17 (Kuzey ve Güney Amerika) ve Himawari (Asya) görüntüleri her 10 dakikada bir güncellenir.

Copyright 2022 EUMETSAT / meteoblue. / Copyright 2022 meteoblue

En başa git